Weather History for PHMK - July, 2014

Change the Weather History Date:

Thursday, July 3, 2014

  Actual Average Record
Temperature  
Mean Temperature 78 °F -  
Max Temperature 84 °F 84 °F 90 °F (2001)
Min Temperature 73 °F 70 °F 65 °F (1983)
Cooling Degree Days 14    
Growing Degree Days 28 (Base 50)    
Moisture  
Dew Point 72 °F    
Average Humidity 83    
Maximum Humidity 97    
Minimum Humidity 67    
Precipitation  
Precipitation 0.00 in - - ()
Sea Level Pressure  
Sea Level Pressure 30.07 in    
Wind  
Wind Speed 13 mph (NE)    
Max Wind Speed 21 mph    
Max Gust Speed 31 mph    
Visibility 10 miles    
Events      
Averages and records for this station are not official NWS values.
T = Trace of Precipitation, MM = Missing Value Source: NWS Daily Summary

Daily Weather History Graph

Daily Weather History Graph

Search for Another Location

Airport or City:

Trip Planner

Search our weather history database for the weather conditions in past years. The results will help you decide how hot, cold, wet, or windy it might be!

Date:

Astronomy

Jul. 03, 2014 Rise Set
Actual Time 5:51 AM HST 7:14 PM HST
Civil Twilight 5:26 AM HST 7:38 PM HST
Nautical Twilight 4:56 AM HST 8:08 PM HST
Astronomical Twilight 4:26 AM HST 8:38 PM HST
Moon 11:14 AM HST (7/3) 11:32 PM HST (7/3)
Length of Visible Light 14h 12m
Length of Day
13h 23m
Waxing Crescent, 35% of the Moon is Illuminated
Jul 3
Waxing Crescent
Jul 5
First Quarter
Jul 12
Full
Jul 18
Last Quarter
Jul 26
New

Hourly Weather History & Observations

Time (HST) Temp. Heat Index Dew Point Humidity Pressure Visibility Wind Dir Wind Speed Gust Speed Precip Events Conditions
12:54 AM 75.9 °F - 70.0 °F 82% 30.04 in 10.0 mi NNE 8.1 mph - N/A   Mostly Cloudy
1:54 AM 75.0 °F - 72.0 °F 90% 30.02 in 10.0 mi NNE 11.5 mph 19.6 mph N/A   Clear
2:54 AM 75.0 °F - 73.0 °F 94% 30.03 in 10.0 mi NE 11.5 mph 20.7 mph N/A   Mostly Cloudy
3:54 AM 73.9 °F - 73.0 °F 97% 30.03 in 10.0 mi NNE 12.7 mph - N/A   Partly Cloudy
4:54 AM 73.9 °F - 73.0 °F 97% 30.04 in 10.0 mi NNE 8.1 mph - 0.00 in   Partly Cloudy
5:54 AM 75.0 °F - 73.0 °F 94% 30.05 in 10.0 mi NE 11.5 mph 18.4 mph N/A   Clear
6:54 AM 75.0 °F - 73.0 °F 94% 30.08 in 10.0 mi NE 11.5 mph - N/A   Partly Cloudy
7:54 AM 78.1 °F - 72.0 °F 81% 30.09 in 10.0 mi NE 16.1 mph 21.9 mph N/A   Partly Cloudy
8:54 AM 81.0 °F 85.2 °F 72.0 °F 74% 30.09 in 10.0 mi NE 11.5 mph 23.0 mph N/A   Partly Cloudy
9:54 AM 81.0 °F 84.9 °F 71.1 °F 72% 30.09 in 10.0 mi NE 15.0 mph 24.2 mph 0.00 in   Clear
10:54 AM 82.0 °F 86.7 °F 72.0 °F 71% 30.08 in 10.0 mi NNE 15.0 mph 26.5 mph N/A   Partly Cloudy
11:54 AM 82.9 °F 87.5 °F 71.1 °F 67% 30.07 in 10.0 mi NE 17.3 mph 26.5 mph N/A   Partly Cloudy
12:54 PM 82.0 °F 86.3 °F 71.1 °F 69% 30.05 in 10.0 mi NNE 19.6 mph 28.8 mph N/A   Clear
1:54 PM 84.0 °F 91.2 °F 73.9 °F 72% 30.05 in 10.0 mi NE 15.0 mph 26.5 mph N/A   Clear
2:54 PM 82.9 °F 89.4 °F 73.9 °F 74% 30.04 in 10.0 mi NNE 17.3 mph 28.8 mph N/A   Clear
3:54 PM 82.0 °F 87.4 °F 73.0 °F 74% 30.04 in 10.0 mi NNE 17.3 mph 27.6 mph N/A   Partly Cloudy
4:54 PM 80.1 °F 83.8 °F 72.0 °F 76% 30.04 in 10.0 mi NNE 20.7 mph 31.1 mph N/A   Partly Cloudy
5:54 PM 79.0 °F - 73.0 °F 82% 30.05 in 10.0 mi NE 16.1 mph 27.6 mph N/A   Scattered Clouds
6:54 PM 77.0 °F - 72.0 °F 84% 30.06 in 10.0 mi NNE 19.6 mph 28.8 mph N/A   Clear
7:54 PM 75.9 °F - 73.0 °F 91% 30.09 in 10.0 mi NE 13.8 mph 26.5 mph N/A   Partly Cloudy
8:54 PM 75.9 °F - 71.1 °F 85% 30.11 in 10.0 mi NE 16.1 mph 24.2 mph N/A   Clear
9:54 PM 75.9 °F - 72.0 °F 87% 30.12 in 10.0 mi NE 11.5 mph 23.0 mph N/A   Scattered Clouds
10:54 PM 75.0 °F - 72.0 °F 90% 30.13 in 10.0 mi ENE 11.5 mph 20.7 mph N/A   Clear
11:54 PM 75.0 °F - 71.1 °F 87% 30.12 in 10.0 mi NE 16.1 mph 24.2 mph N/A   Clear